Weather History for Grosse Ile, MI

Change the Weather History Date:

Friday, June 21, 2013

  Actual Average (KDTW) Record (KDTW)
Temperature  
Mean Temperature 71 °F 71 °F  
Max Temperature 80 °F 81 °F 96 °F (1933)
Min Temperature 62 °F 61 °F 42 °F (1992)
Degree Days  
Heating Degree Days 0 1  
Month to date heating degree days 33  
Since 1 June heating degree days 33  
Since 1 July heating degree days 6135  
Cooling Degree Days 6 7  
Month to date cooling degree days 99  
Year to date cooling degree days 147  
Since 1 June cooling degree days 99  
Growing Degree Days 21 (Base 50)    
Moisture  
Dew Point 62 °F    
Average Humidity 67    
Maximum Humidity 83    
Minimum Humidity 54    
Precipitation  
Precipitation 0.00 in 0.12 in 2.23 in (1987)
Month to date precipitation 2.53  
Year to date precipitation 15.07  
Snow  
Snow 0.00 in 0.00 in 0.00 in ()
Month to date snowfall 0.0  
Since 1 June snowfall 0.0  
Since 1 July snowfall 42.5  
Snow Depth -    
Sea Level Pressure  
Sea Level Pressure 30.16 in    
Wind  
Wind Speed 6 mph (SSE)    
Max Wind Speed 15 mph    
Max Gust Speed 20 mph    
Visibility 10 miles    
Events      
T = Trace of Precipitation, MM = Missing Value Source: NWS Daily Summary

Daily Weather History Graph

Daily Weather History Graph

Search for Another Location

Airport:

Trip Planner

Search our weather history database for the weather conditions in past years. The results will help you decide how hot, cold, wet, or windy it might be!

Date:

Astronomy

Jun. 21, 2013 Rise Set
Actual Time 5:56 AM EDT 9:12 PM EDT
Civil Twilight 5:22 AM EDT 9:46 PM EDT
Nautical Twilight 4:37 AM EDT 10:31 PM EDT
Astronomical Twilight 3:43 AM EDT 11:25 PM EDT
Moon 7:20 PM EDT (6/21) 4:12 AM EDT (6/21)
Length of Visible Light 16h 24m
Length of Day
15h 15m
Waxing Gibbous, 95% of the Moon is Illuminated
Jun 21
Waxing Gibbous
Jun 23
Full
Jun 30
Last Quarter
Jul 8
New
Jul 15
First Quarter

Hourly Weather History & Observations

Time (EDT) Temp. Heat Index Dew Point Humidity Pressure Visibility Wind Dir Wind Speed Gust Speed Precip Events Conditions
12:14 AM 68.0 °F - 53.6 °F 60% 30.20 in 10.0 mi SE 3.5 mph - N/A   Clear
12:34 AM 66.2 °F - 53.6 °F 64% 30.20 in 10.0 mi Calm Calm - N/A   Clear
12:54 AM 66.2 °F - 55.4 °F 68% 30.21 in 10.0 mi Calm Calm - N/A   Scattered Clouds
1:14 AM 64.4 °F - 55.4 °F 73% 30.20 in 10.0 mi Calm Calm - N/A   Scattered Clouds
1:34 AM 66.2 °F - 55.4 °F 68% 30.21 in 10.0 mi Calm Calm - N/A   Scattered Clouds
1:54 AM 64.4 °F - 55.4 °F 73% 30.20 in 10.0 mi Calm Calm - N/A   Mostly Cloudy
2:15 AM 66.2 °F - 55.4 °F 68% 30.20 in 10.0 mi Calm Calm - N/A   Scattered Clouds
2:34 AM 62.6 °F - 55.4 °F 77% 30.20 in 10.0 mi Calm Calm - N/A   Scattered Clouds
2:54 AM 64.4 °F - 55.4 °F 73% 30.19 in 10.0 mi SSE 3.5 mph - N/A   Scattered Clouds
3:15 AM 68.0 °F - 55.4 °F 64% 30.19 in 10.0 mi SE 5.8 mph - N/A   Clear
3:34 AM 69.8 °F - 53.6 °F 56% 30.18 in 10.0 mi SE 6.9 mph - N/A   Clear
3:54 AM 69.8 °F - 53.6 °F 56% 30.18 in 10.0 mi SE 8.1 mph - N/A   Clear
4:15 AM 69.8 °F - 55.4 °F 60% 30.18 in 10.0 mi SE 6.9 mph - N/A   Clear
4:34 AM 69.8 °F - 57.2 °F 64% 30.18 in 10.0 mi SE 8.1 mph - N/A   Clear
4:54 AM 69.8 °F - 57.2 °F 64% 30.18 in 10.0 mi SE 5.8 mph - N/A   Mostly Cloudy
5:14 AM 69.8 °F - 59.0 °F 68% 30.18 in 10.0 mi SE 5.8 mph - N/A   Overcast
5:34 AM 69.8 °F - 59.0 °F 68% 30.17 in 10.0 mi SE 6.9 mph - N/A   Mostly Cloudy
5:55 AM 69.8 °F - 60.8 °F 73% 30.18 in 10.0 mi SSE 6.9 mph - N/A   Mostly Cloudy
6:14 AM 69.8 °F - 60.8 °F 73% 30.18 in 10.0 mi SE 8.1 mph - N/A   Mostly Cloudy
6:34 AM 69.8 °F - 62.6 °F 78% 30.19 in 10.0 mi SSE 6.9 mph - N/A   Mostly Cloudy
6:54 AM 69.8 °F - 62.6 °F 78% 30.18 in 10.0 mi SSE 6.9 mph - N/A   Overcast
7:14 AM 69.8 °F - 62.6 °F 78% 30.19 in 10.0 mi SSE 5.8 mph - N/A   Mostly Cloudy
7:34 AM 69.8 °F - 62.6 °F 78% 30.18 in 10.0 mi SSE 6.9 mph - N/A   Scattered Clouds
7:54 AM 69.8 °F - 62.6 °F 78% 30.18 in 10.0 mi SSE 6.9 mph - N/A   Clear
8:14 AM 71.6 °F - 62.6 °F 73% 30.19 in 10.0 mi SSE 6.9 mph - N/A   Clear
8:34 AM 71.6 °F - 62.6 °F 73% 30.20 in 10.0 mi SSE 5.8 mph - N/A   Clear
8:54 AM 71.6 °F - 62.6 °F 73% 30.21 in 10.0 mi South 4.6 mph - N/A   Clear
9:14 AM 71.6 °F - 62.6 °F 73% 30.22 in 10.0 mi South 4.6 mph - N/A   Scattered Clouds
9:34 AM 73.4 °F - 64.4 °F 73% 30.21 in 10.0 mi South 5.8 mph - N/A   Scattered Clouds
9:54 AM 71.6 °F - 64.4 °F 78% 30.19 in 10.0 mi SSE 6.9 mph - N/A   Scattered Clouds
10:14 AM 73.4 °F - 62.6 °F 69% 30.19 in 10.0 mi SSE 8.1 mph - N/A   Scattered Clouds
10:35 AM 73.4 °F - 62.6 °F 69% 30.18 in 10.0 mi SSE 8.1 mph - N/A   Clear
10:54 AM 73.4 °F - 62.6 °F 69% 30.19 in 10.0 mi SSE 6.9 mph - N/A   Clear
11:14 AM 73.4 °F - 62.6 °F 69% 30.20 in 10.0 mi SSE 8.1 mph - N/A   Clear
11:35 AM 73.4 °F - 64.4 °F 73% 30.21 in 10.0 mi SSE 6.9 mph - N/A   Clear
11:54 AM 75.2 °F - 64.4 °F 69% 30.21 in 10.0 mi SSE 9.2 mph - N/A   Clear
12:14 PM 75.2 °F - 64.4 °F 69% 30.21 in 10.0 mi SSE 6.9 mph - N/A   Clear
12:35 PM 75.2 °F - 64.4 °F 69% 30.20 in 10.0 mi SSE 8.1 mph - N/A   Clear
12:54 PM 75.2 °F - 64.4 °F 69% 30.20 in 10.0 mi SE 9.2 mph - N/A   Clear
1:14 PM 77.0 °F - 64.4 °F 65% 30.19 in 10.0 mi SE 8.1 mph - N/A   Clear
1:34 PM 78.8 °F - 62.6 °F 57% 30.19 in 10.0 mi SE 8.1 mph - N/A   Clear
1:54 PM 78.8 °F - 62.6 °F 57% 30.18 in 10.0 mi SE 6.9 mph - N/A   Clear
2:14 PM 78.8 °F - 62.6 °F 57% 30.17 in 10.0 mi SE 8.1 mph - N/A   Clear
2:34 PM 80.6 °F 81.8 °F 62.6 °F 54% 30.16 in 10.0 mi SE 9.2 mph - N/A   Clear
2:54 PM 80.6 °F 81.8 °F 62.6 °F 54% 30.17 in 10.0 mi SE 8.1 mph - N/A   Clear
3:14 PM 80.6 °F 81.8 °F 62.6 °F 54% 30.16 in 10.0 mi SE 10.4 mph - N/A   Clear
3:34 PM 80.6 °F 81.8 °F 62.6 °F 54% 30.16 in 10.0 mi SE 12.7 mph 16.1 mph N/A   Clear
3:54 PM 80.6 °F 81.8 °F 62.6 °F 54% 30.15 in 10.0 mi SE 9.2 mph - N/A   Scattered Clouds
4:14 PM 80.6 °F 81.8 °F 62.6 °F 54% 30.15 in 10.0 mi SSE 8.1 mph - N/A   Scattered Clouds
4:34 PM 80.6 °F 81.8 °F 62.6 °F 54% 30.15 in 10.0 mi SE 8.1 mph - N/A   Scattered Clouds
4:54 PM 80.6 °F 81.8 °F 62.6 °F 54% 30.14 in 10.0 mi SE 8.1 mph - N/A   Scattered Clouds
5:15 PM 80.6 °F 81.8 °F 62.6 °F 54% 30.13 in 10.0 mi SE 6.9 mph - N/A   Scattered Clouds
5:34 PM 80.6 °F 81.8 °F 62.6 °F 54% 30.12 in 10.0 mi SE 8.1 mph - N/A   Scattered Clouds
5:54 PM 78.8 °F - 62.6 °F 57% 30.11 in 10.0 mi SE 9.2 mph - N/A   Clear
6:15 PM 78.8 °F - 62.6 °F 57% 30.10 in 10.0 mi SE 8.1 mph - N/A   Clear
6:34 PM 78.8 °F - 62.6 °F 57% 30.09 in 10.0 mi SE 10.4 mph - N/A   Scattered Clouds
6:54 PM 78.8 °F - 62.6 °F 57% 30.09 in 10.0 mi SE 11.5 mph - N/A   Scattered Clouds
7:14 PM 77.0 °F - 62.6 °F 61% 30.09 in 10.0 mi SE 9.2 mph - N/A   Scattered Clouds
7:34 PM 77.0 °F - 64.4 °F 65% 30.09 in 10.0 mi SE 10.4 mph - N/A   Clear
7:55 PM 75.2 °F - 64.4 °F 69% 30.09 in 10.0 mi SE 11.5 mph 16.1 mph N/A   Clear
8:14 PM 75.2 °F - 64.4 °F 69% 30.08 in 10.0 mi SE 13.8 mph 19.6 mph N/A   Clear
8:34 PM 75.2 °F - 66.2 °F 73% 30.07 in 10.0 mi SE 15.0 mph 18.4 mph N/A   Clear
8:55 PM 75.2 °F - 66.2 °F 73% 30.07 in 10.0 mi SSE 11.5 mph - N/A   Clear
9:14 PM 75.2 °F - 66.2 °F 73% 30.07 in 10.0 mi SSE 11.5 mph - N/A   Clear
9:34 PM 75.2 °F - 64.4 °F 69% 30.07 in 10.0 mi SSE 11.5 mph 17.3 mph N/A   Clear
9:54 PM 75.2 °F - 64.4 °F 69% 30.06 in 10.0 mi SSE 12.7 mph - N/A   Clear
10:14 PM 75.2 °F - 64.4 °F 69% 30.09 in 3.0 mi SSE 10.4 mph - N/A   Haze
10:34 PM 75.2 °F - 64.4 °F 69% 30.08 in 10.0 mi SSE 9.2 mph - N/A   Clear
10:54 PM 73.4 °F - 64.4 °F 73% 30.10 in 10.0 mi South 5.8 mph - N/A   Clear
11:14 PM 71.6 °F - 66.2 °F 83% 30.10 in 10.0 mi South 4.6 mph - N/A   Clear
11:34 PM 71.6 °F - 66.2 °F 83% 30.10 in 10.0 mi South 3.5 mph - N/A   Clear
11:54 PM 71.6 °F - 66.2 °F 83% 30.11 in 10.0 mi Calm Calm - N/A   Clear